Tracking 19564 objects as of 20-Mar-2019
HD Live streaming from Space Station
objects crossing your sky now

FENGYUN 1C DEB

Track FENGYUN 1C DEB now!
10-day predictions


NORAD ID: 30320
Int'l Code: 1999-025AAH
Perigee: 847.2 km
Apogee: 974.6 km
Inclination: 99.4 °
Period: 103.1 minutes
Semi major axis: 7281 km
RCS: 0.0266 m2 (small)
Launch date: May 10, 1999
Source: People's Republic of China (PRC)
Launch site: Taiyaun Space Center, China (TSC)

Note: This is SATELLITE DEBRIS
aabbcc
Your satellite tracking list
Your tracking list is empty




NASA's NSSDC Master Catalog

Two Line Element Set (TLE):
1 30320U 99025AAH 19077.47303177 -.00000166 +00000-0 -82832-4 0  9991
2 30320 099.3716 067.1849 0087477 159.3635 352.5390 13.97132977620278
Source of the keplerian elements: AFSPC